TimeCDT,TemperatureF,Dew PointF,Humidity,Sea Level PressureIn,VisibilityMPH,Wind Direction,Wind SpeedMPH,Gust SpeedMPH,PrecipitationIn,Events,Conditions,WindDirDegrees,DateUTC
12:52 AM,57.9,50.0,75,30.02,10.0,Calm,Calm,-,N/A,,Clear,0,2013-05-06 05:52:00
1:52 AM,52.0,48.0,86,30.03,10.0,Calm,Calm,-,N/A,,Clear,0,2013-05-06 06:52:00
2:52 AM,53.1,48.9,86,30.03,10.0,Calm,Calm,-,N/A,,Clear,0,2013-05-06 07:52:00
3:52 AM,53.1,48.9,86,30.04,10.0,Calm,Calm,-,N/A,,Clear,0,2013-05-06 08:52:00
4:52 AM,51.1,48.9,92,30.04,10.0,Calm,Calm,-,N/A,,Clear,0,2013-05-06 09:52:00
5:52 AM,50.0,48.0,93,30.04,10.0,Calm,Calm,-,N/A,,Clear,0,2013-05-06 10:52:00
6:52 AM,54.0,51.1,90,30.05,10.0,Calm,Calm,-,N/A,,Clear,0,2013-05-06 11:52:00
7:52 AM,62.1,51.1,67,30.06,10.0,Calm,Calm,-,N/A,,Clear,0,2013-05-06 12:52:00
8:52 AM,66.0,50.0,56,30.07,10.0,North,5.8,-,N/A,,Clear,350,2013-05-06 13:52:00
9:52 AM,70.0,48.9,47,30.06,10.0,NNW,5.8,-,N/A,,Mostly Cloudy,340,2013-05-06 14:52:00
10:52 AM,72.0,48.0,43,30.06,10.0,NNE,9.2,-,N/A,,Clear,20,2013-05-06 15:52:00
11:52 AM,73.0,48.0,41,30.05,10.0,NNE,9.2,-,N/A,,Partly Cloudy,20,2013-05-06 16:52:00
12:52 PM,73.0,46.0,38,30.04,10.0,Variable,4.6,-,N/A,,Clear,0,2013-05-06 17:52:00
1:52 PM,73.0,46.0,38,30.03,10.0,Variable,6.9,-,N/A,,Partly Cloudy,0,2013-05-06 18:52:00
2:52 PM,73.9,45.0,35,30.01,10.0,WNW,5.8,-,N/A,,Scattered Clouds,300,2013-05-06 19:52:00
3:52 PM,75.0,46.9,37,30.00,10.0,North,10.4,-,N/A,,Mostly Cloudy,350,2013-05-06 20:52:00
4:52 PM,75.0,46.0,36,29.99,10.0,WNW,4.6,-,N/A,,Overcast,300,2013-05-06 21:52:00
5:52 PM,73.9,44.1,34,29.99,10.0,Calm,Calm,-,N/A,,Mostly Cloudy,0,2013-05-06 22:52:00
6:52 PM,73.9,45.0,35,29.99,10.0,NW,3.5,-,N/A,,Mostly Cloudy,310,2013-05-06 23:52:00
7:52 PM,70.0,50.0,49,30.00,10.0,North,4.6,-,N/A,,Mostly Cloudy,360,2013-05-07 00:52:00
8:52 PM,63.0,51.1,65,30.01,10.0,Calm,Calm,-,N/A,,Clear,0,2013-05-07 01:52:00
9:52 PM,61.0,52.0,72,30.02,10.0,Calm,Calm,-,N/A,,Clear,0,2013-05-07 02:52:00
10:52 PM,59.0,52.0,78,30.02,10.0,Calm,Calm,-,N/A,,Clear,0,2013-05-07 03:52:00
11:52 PM,57.0,51.1,81,30.03,10.0,Calm,Calm,-,N/A,,Clear,0,2013-05-07 04:52:00